International Skating Union - Official Site

ISU World Cup Seoul
November 21-23, 2014

Draw | Lap Times | Index | World Cup

Referee: Jan  BOLT  (NED)
Starter: Yong-Seok  OH  (KOR)
StartTime: EndTime: Air Temp: Ice Temp: Humidity:
14:00 15:35 15℃ -4.8℃ 40%
Result 10000m Men Division A
Rankings as of Nov 23 2014 3:56PM
Rank: No.: Name: Nation: Time: Behind: Points:
1 164 Bob  de Jong NED NED 13:17.51400m - 34.45 - (34.4)
800m - 1:05.58 - (31.1)
1200m - 1:37.25 - (31.6)
1600m - 2:09.02 - (31.7)
2000m - 2:40.61 - (31.5)
2400m - 3:12.56 - (31.9)
2800m - 3:44.21 - (31.6)
3200m - 4:16.12 - (31.9)
3600m - 4:47.83 - (31.7)
4000m - 5:19.71 - (31.8)
4400m - 5:51.61 - (31.9)
4800m - 6:23.66 - (32.0)
5200m - 6:55.42 - (31.7)
5600m - 7:27.07 - (31.6)
6000m - 7:58.83 - (31.7)
6400m - 8:30.50 - (31.6)
6800m - 9:01.99 - (31.4)
7200m - 9:33.67 - (31.6)
7600m - 10:05.42 - (31.7)
8000m - 10:37.53 - (32.1)
8400m - 11:09.40 - (31.8)
8800m - 11:41.33 - (31.9)
9200m - 12:13.46 - (32.1)
9600m - 12:45.64 - (32.1)
10000m - 13:17.51 - (31.8)
100
2 104 Bart  Swings BEL BEL 13:32.45400m - 36.29 - (36.2)
800m - 1:08.35 - (32.0)
1200m - 1:40.80 - (32.4)
1600m - 2:13.34 - (32.5)
2000m - 2:45.81 - (32.4)
2400m - 3:18.26 - (32.4)
2800m - 3:50.68 - (32.4)
3200m - 4:23.35 - (32.6)
3600m - 4:55.96 - (32.6)
4000m - 5:28.34 - (32.3)
4400m - 6:00.67 - (32.3)
4800m - 6:33.17 - (32.5)
5200m - 7:05.60 - (32.4)
5600m - 7:37.97 - (32.3)
6000m - 8:10.22 - (32.2)
6400m - 8:42.41 - (32.1)
6800m - 9:14.58 - (32.1)
7200m - 9:46.68 - (32.1)
7600m - 10:18.70 - (32.0)
8000m - 10:50.86 - (32.1)
8400m - 11:22.73 - (31.8)
8800m - 11:54.83 - (32.1)
9200m - 12:26.65 - (31.8)
9600m - 12:59.23 - (32.5)
10000m - 13:32.45 - (33.2)
14.94 80
3 199 Aleksandr  Rumyantsev RUS RUS 13:37.59400m - 35.09 - (35.0)
800m - 1:06.23 - (31.1)
1200m - 1:37.74 - (31.5)
1600m - 2:09.35 - (31.6)
2000m - 2:41.14 - (31.7)
2400m - 3:12.79 - (31.6)
2800m - 3:44.76 - (31.9)
3200m - 4:16.49 - (31.7)
3600m - 4:48.22 - (31.7)
4000m - 5:20.09 - (31.8)
4400m - 5:52.23 - (32.1)
4800m - 6:24.34 - (32.1)
5200m - 6:56.39 - (32.0)
5600m - 7:28.33 - (31.9)
6000m - 8:00.19 - (31.8)
6400m - 8:32.28 - (32.0)
6800m - 9:04.91 - (32.6)
7200m - 9:37.84 - (32.9)
7600m - 10:11.12 - (33.2)
8000m - 10:44.55 - (33.4)
8400m - 11:18.08 - (33.5)
8800m - 11:51.92 - (33.8)
9200m - 12:26.72 - (34.8)
9600m - 13:01.74 - (35.0)
10000m - 13:37.59 - (35.8)
20.08 70
4 184 Sverre  Lunde Pedersen NOR NOR 13:40.35400m - 36.15 - (36.1)
800m - 1:08.57 - (32.4)
1200m - 1:42.03 - (33.4)
1600m - 2:14.84 - (32.8)
2000m - 2:47.77 - (32.9)
2400m - 3:20.70 - (32.9)
2800m - 3:53.71 - (33.0)
3200m - 4:26.34 - (32.6)
3600m - 4:59.13 - (32.7)
4000m - 5:31.74 - (32.6)
4400m - 6:04.34 - (32.6)
4800m - 6:36.94 - (32.6)
5200m - 7:09.60 - (32.6)
5600m - 7:42.17 - (32.5)
6000m - 8:14.71 - (32.5)
6400m - 8:47.09 - (32.3)
6800m - 9:19.53 - (32.4)
7200m - 9:51.80 - (32.2)
7600m - 10:24.10 - (32.3)
8000m - 10:56.36 - (32.2)
8400m - 11:28.67 - (32.3)
8800m - 12:01.04 - (32.3)
9200m - 12:33.81 - (32.7)
9600m - 13:06.69 - (32.8)
10000m - 13:40.35 - (33.6)
22.84 60
5 125 Patrick  Beckert GER GER 13:40.79400m - 36.69 - (36.6)
800m - 1:09.49 - (32.8)
1200m - 1:43.35 - (33.8)
1600m - 2:16.73 - (33.3)
2000m - 2:50.01 - (33.2)
2400m - 3:23.36 - (33.3)
2800m - 3:56.70 - (33.3)
3200m - 4:30.08 - (33.3)
3600m - 5:03.34 - (33.2)
4000m - 5:36.49 - (33.1)
4400m - 6:09.50 - (33.0)
4800m - 6:42.12 - (32.6)
5200m - 7:14.56 - (32.4)
5600m - 7:47.09 - (32.5)
6000m - 8:19.59 - (32.5)
6400m - 8:52.36 - (32.7)
6800m - 9:24.87 - (32.5)
7200m - 9:57.31 - (32.4)
7600m - 10:29.64 - (32.3)
8000m - 11:02.20 - (32.5)
8400m - 11:34.76 - (32.5)
8800m - 12:07.25 - (32.4)
9200m - 12:39.37 - (32.1)
9600m - 13:10.70 - (31.3)
10000m - 13:40.79 - (30.1)
23.28 50
6 166 Douwe  de Vries NED NED 13:40.93400m - 36.19 - (36.1)
800m - 1:08.81 - (32.6)
1200m - 1:41.65 - (32.8)
1600m - 2:14.38 - (32.7)
2000m - 2:46.73 - (32.3)
2400m - 3:19.29 - (32.5)
2800m - 3:51.93 - (32.6)
3200m - 4:24.72 - (32.7)
3600m - 4:57.65 - (32.9)
4000m - 5:30.54 - (32.8)
4400m - 6:03.23 - (32.6)
4800m - 6:35.94 - (32.7)
5200m - 7:08.72 - (32.7)
5600m - 7:41.22 - (32.5)
6000m - 8:13.65 - (32.4)
6400m - 8:46.30 - (32.6)
6800m - 9:19.20 - (32.9)
7200m - 9:52.08 - (32.8)
7600m - 10:24.86 - (32.7)
8000m - 10:57.74 - (32.8)
8400m - 11:30.48 - (32.7)
8800m - 12:02.97 - (32.4)
9200m - 12:35.54 - (32.5)
9600m - 13:08.40 - (32.8)
10000m - 13:40.93 - (32.5)
23.42 45
7 201 Yevgeny  Seryaev RUS RUS 13:47.22400m - 37.89 - (37.8)
800m - 1:12.34 - (34.4)
1200m - 1:45.82 - (33.4)
1600m - 2:19.21 - (33.3)
2000m - 2:52.35 - (33.1)
2400m - 3:25.18 - (32.8)
2800m - 3:57.59 - (32.4)
3200m - 4:30.39 - (32.8)
3600m - 5:03.32 - (32.9)
4000m - 5:36.00 - (32.6)
4400m - 6:08.62 - (32.6)
4800m - 6:41.07 - (32.4)
5200m - 7:13.47 - (32.4)
5600m - 7:45.93 - (32.4)
6000m - 8:18.58 - (32.6)
6400m - 8:51.28 - (32.7)
6800m - 9:23.94 - (32.6)
7200m - 9:56.49 - (32.5)
7600m - 10:29.21 - (32.7)
8000m - 11:01.86 - (32.6)
8400m - 11:34.96 - (33.1)
8800m - 12:07.87 - (32.9)
9200m - 12:40.77 - (32.9)
9600m - 13:13.90 - (33.1)
10000m - 13:47.22 - (33.3)
29.71 40
8 159 Seung-Hoon  Lee KOR KOR 13:54.09400m - 36.86 - (36.8)
800m - 1:09.78 - (32.9)
1200m - 1:42.88 - (33.1)
1600m - 2:15.77 - (32.8)
2000m - 2:48.55 - (32.7)
2400m - 3:21.41 - (32.8)
2800m - 3:54.33 - (32.9)
3200m - 4:26.99 - (32.6)
3600m - 5:00.00 - (33.0)
4000m - 5:32.96 - (32.9)
4400m - 6:06.02 - (33.0)
4800m - 6:38.67 - (32.6)
5200m - 7:11.76 - (33.0)
5600m - 7:44.69 - (32.9)
6000m - 8:17.54 - (32.8)
6400m - 8:50.41 - (32.8)
6800m - 9:23.35 - (32.9)
7200m - 9:56.37 - (33.0)
7600m - 10:29.68 - (33.3)
8000m - 11:02.96 - (33.2)
8400m - 11:36.73 - (33.7)
8800m - 12:10.64 - (33.9)
9200m - 12:44.98 - (34.3)
9600m - 13:19.37 - (34.3)
10000m - 13:54.09 - (34.7)
36.58 35
9 191 Jan  Szymanski POL POL 14:01.36400m - 35.31 - (35.3)
800m - 1:07.67 - (32.3)
1200m - 1:40.74 - (33.0)
1600m - 2:13.51 - (32.7)
2000m - 2:46.82 - (33.3)
2400m - 3:19.73 - (32.9)
2800m - 3:52.81 - (33.0)
3200m - 4:26.02 - (33.2)
3600m - 4:58.34 - (32.3)
4000m - 5:31.57 - (33.2)
4400m - 6:03.98 - (32.4)
4800m - 6:37.14 - (33.1)
5200m - 7:10.04 - (32.9)
5600m - 7:43.07 - (33.0)
6000m - 8:16.29 - (33.2)
6400m - 8:49.57 - (33.2)
6800m - 9:23.49 - (33.9)
7200m - 9:58.14 - (34.6)
7600m - 10:32.97 - (34.8)
8000m - 11:07.81 - (34.8)
8400m - 11:42.61 - (34.8)
8800m - 12:18.22 - (35.6)
9200m - 12:53.78 - (35.5)
9600m - 13:28.18 - (34.4)
10000m - 14:01.36 - (33.1)
43.85 30
10 132 Andrea  Giovannini ITA ITA 14:02.77400m - 37.36 - (37.3)
800m - 1:10.99 - (33.6)
1200m - 1:45.02 - (34.0)
1600m - 2:18.77 - (33.7)
2000m - 2:52.28 - (33.5)
2400m - 3:25.59 - (33.3)
2800m - 3:58.84 - (33.2)
3200m - 4:32.16 - (33.3)
3600m - 5:05.33 - (33.1)
4000m - 5:38.67 - (33.3)
4400m - 6:12.04 - (33.3)
4800m - 6:45.67 - (33.6)
5200m - 7:19.10 - (33.4)
5600m - 7:52.53 - (33.4)
6000m - 8:25.79 - (33.2)
6400m - 8:59.22 - (33.4)
6800m - 9:32.59 - (33.3)
7200m - 10:06.02 - (33.4)
7600m - 10:39.40 - (33.3)
8000m - 11:13.17 - (33.7)
8400m - 11:46.96 - (33.7)
8800m - 12:20.82 - (33.8)
9200m - 12:54.96 - (34.1)
9600m - 13:28.98 - (34.0)
10000m - 14:02.77 - (33.7)
45.26 25
11 200 Danila  Semerikov RUS RUS 14:07.59400m - 37.89 - (37.8)
800m - 1:12.71 - (34.8)
1200m - 1:46.89 - (34.1)
1600m - 2:20.58 - (33.6)
2000m - 2:53.35 - (32.7)
2400m - 3:26.68 - (33.3)
2800m - 4:00.13 - (33.4)
3200m - 4:33.59 - (33.4)
3600m - 5:06.90 - (33.3)
4000m - 5:40.13 - (33.2)
4400m - 6:12.98 - (32.8)
4800m - 6:45.84 - (32.8)
5200m - 7:18.58 - (32.7)
5600m - 7:51.32 - (32.7)
6000m - 8:23.96 - (32.6)
6400m - 8:56.89 - (32.9)
6800m - 9:30.08 - (33.1)
7200m - 10:03.91 - (33.8)
7600m - 10:37.67 - (33.7)
8000m - 11:11.31 - (33.6)
8400m - 11:45.26 - (33.9)
8800m - 12:19.99 - (34.7)
9200m - 12:55.16 - (35.1)
9600m - 13:31.07 - (35.9)
10000m - 14:07.59 - (36.5)
50.08 21
12 105 Jordan  Belchos CAN CAN 14:07.96400m - 36.24 - (36.2)
800m - 1:08.48 - (32.2)
1200m - 1:40.91 - (32.4)
1600m - 2:13.30 - (32.3)
2000m - 2:45.96 - (32.6)
2400m - 3:18.85 - (32.8)
2800m - 3:51.70 - (32.8)
3200m - 4:24.36 - (32.6)
3600m - 4:57.90 - (33.5)
4000m - 5:31.67 - (33.7)
4400m - 6:05.59 - (33.9)
4800m - 6:39.87 - (34.2)
5200m - 7:14.30 - (34.4)
5600m - 7:48.97 - (34.6)
6000m - 8:23.58 - (34.6)
6400m - 8:58.20 - (34.6)
6800m - 9:33.09 - (34.8)
7200m - 10:08.12 - (35.0)
7600m - 10:43.08 - (34.9)
8000m - 11:18.20 - (35.1)
8400m - 11:53.27 - (35.0)
8800m - 12:27.47 - (34.2)
9200m - 13:00.82 - (33.3)
9600m - 13:34.37 - (33.5)
10000m - 14:07.96 - (33.5)
50.45 18